Skip Page Navigation
NASA JPL Caltech
NASA Logo - Jet Propulsion Laboratory + View the NASA Portal
+ Center for Near-Earth Object Studies
JPL Home Earth Solar System Stars & Galaxies Technology
JPL Solar System Dynamics
BODIES ORBITS EPHEMERIDES TOOLS PHYSICAL DATA DISCOVERY FAQ SITE MAP
JPL Small-Body Database Browser
Search: [ help ]  
35771 (1999 JE6)
Classification: Main-belt Asteroid          SPK-ID: 2035771
Ephemeris | Orbit Diagram | Orbital Elements | Mission Design | Physical Parameters | Discovery Circumstances ]

[ show orbit diagram ]
Orbital Elements at Epoch 2459000.5 (2020-May-31.0) TDB
Reference: JPL 23 (heliocentric ecliptic J2000)
 Element Value Uncertainty (1-sigma)   Units 
e .1362084834268051 3.5113e-08  
a 2.285613795853048 7.0685e-09 au
q 1.974293807020521 8.1e-08 au
i 7.59397831171401 3.2202e-06 deg
node 89.41845455303715 3.2522e-05 deg
peri 129.1857850241661 3.543e-05 deg
M 42.26227077904102 1.5164e-05 deg
tp 2458852.332474640410
(2020-Jan-03.83247464)
5.2901e-05 TDB
period 1262.125961199071
3.46
5.8549e-06
1.603e-08
d
yr
n .2852330203698412 1.3232e-09 deg/d
Q 2.596933784685575 8.0313e-09 au
  Orbit Determination Parameters
   # obs. used (total)      1618  
   data-arc span      8236 days (22.55 yr)  
   first obs. used      1997-11-29  
   last obs. used      2020-06-17  
   planetary ephem.      DE431  
   SB-pert. ephem.      SB431-N16  
   condition code      0  
   norm. resid. RMS      .52006  
   source      ORB  
   producer      Otto Matic  
   solution date      2020-Jun-23 20:32:39  

Additional Information
 Earth MOID = .975573 au 
 Jupiter MOID = 2.39515 au 
 T_jup = 3.578 
[ show covariance matrix ]

Ephemeris | Orbit Diagram | Orbital Elements | Mission Design | Physical Parameters | Discovery Circumstances ]

Physical Parameter Table
Parameter Symbol Value Units Sigma Reference Notes
absolute magnitude H 14.3   n/a MPO365674  

35771 (1999 JE6)          Discovered 1999-May-11 by Shimizu, Y., Urata, T. at Nachi-Katsuura
Reference: 20020227/Numbers.arcLast Updated: 2004-04-19

Alternate Designations
 1999 JE6 = 1997 WV41 
Ephemeris | Orbit Diagram | Orbital Elements | Mission Design | Physical Parameters | Discovery Circumstances ]
ABOUT SSD CREDITS/AWARDS PRIVACY/COPYRIGHT GLOSSARY LINKS
FirstGov 2020-Oct-25 15:07 UT
(server date/time)  
NASA Home Page
Site Manager:   Ryan S. Park
Webmaster  Alan B. Chamberlin